Time,TemperatureF,DewpointF,PressureIn,WindDirection,WindDirectionDegrees,WindSpeedMPH,WindSpeedGustMPH,Humidity,HourlyPrecipIn,Conditions,Clouds,dailyrainin,SoftwareType,DateUTC
2013-05-09 00:00:00,53.3,51.9,29.99,North,357,0.0,1.0,95,0.00,,CLR,0.00,VWS V14.00,2013-05-09 04:00:00,
2013-05-09 00:01:00,53.3,51.9,29.99,North,357,0.0,1.0,95,0.00,,CLR,0.00,VWS V14.00,2013-05-09 04:01:00,
2013-05-09 00:03:00,53.3,52.2,30.00,North,357,0.0,0.0,96,0.00,,CLR,0.00,VWS V14.00,2013-05-09 04:03:00,
2013-05-09 00:06:00,53.3,52.2,30.00,North,357,0.0,0.0,96,0.00,,CLR,0.00,VWS V14.00,2013-05-09 04:06:00,
2013-05-09 00:11:00,53.4,52.3,29.99,North,356,0.0,0.0,96,0.00,,CLR,0.00,VWS V14.00,2013-05-09 04:11:00,
2013-05-09 00:16:00,53.6,52.5,29.99,North,356,0.0,0.0,96,0.00,,CLR,0.00,VWS V14.00,2013-05-09 04:16:00,
2013-05-09 00:21:00,53.6,52.5,29.99,North,356,0.0,0.0,96,0.00,,CLR,0.00,VWS V14.00,2013-05-09 04:21:00,
2013-05-09 00:26:00,53.4,52.3,29.99,North,357,0.0,0.0,96,0.00,,CLR,0.00,VWS V14.00,2013-05-09 04:26:00,
2013-05-09 00:30:00,53.3,52.2,29.99,North,357,0.0,0.0,96,0.00,,CLR,0.00,VWS V14.00,2013-05-09 04:30:00,
2013-05-09 00:31:00,53.3,52.2,29.99,North,356,0.0,0.0,96,0.00,,CLR,0.00,VWS V14.00,2013-05-09 04:31:00,
2013-05-09 00:36:00,53.3,52.2,29.99,North,357,0.0,0.0,96,0.00,,CLR,0.00,VWS V14.00,2013-05-09 04:36:00,
2013-05-09 00:41:00,53.2,52.1,29.99,North,356,0.0,0.0,96,0.00,,CLR,0.00,VWS V14.00,2013-05-09 04:41:00,
2013-05-09 00:46:00,53.2,52.1,29.99,North,356,0.0,0.0,96,0.00,,CLR,0.00,VWS V14.00,2013-05-09 04:46:00,
2013-05-09 00:51:00,53.3,52.2,29.99,North,357,0.0,0.0,96,0.00,,CLR,0.00,VWS V14.00,2013-05-09 04:51:00,
2013-05-09 00:56:00,53.3,52.2,29.99,North,357,0.0,0.0,96,0.00,,CLR,0.00,VWS V14.00,2013-05-09 04:56:00,
2013-05-09 01:00:00,53.3,52.2,29.98,North,356,0.0,0.0,96,0.00,,CLR,0.00,VWS V14.00,2013-05-09 05:00:00,
2013-05-09 01:01:00,53.3,52.2,29.98,North,357,0.0,0.0,96,0.00,,-RA,0.00,VWS V14.00,2013-05-09 05:01:00,
2013-05-09 01:06:00,53.4,52.3,29.98,North,357,0.0,0.0,96,0.00,,-RA,0.00,VWS V14.00,2013-05-09 05:06:00,
2013-05-09 01:11:00,53.5,52.4,29.98,North,356,0.0,0.0,96,0.00,,-RA,0.00,VWS V14.00,2013-05-09 05:11:00,
2013-05-09 01:16:00,53.7,52.6,29.98,North,356,0.0,0.0,96,0.00,,-RA,0.00,VWS V14.00,2013-05-09 05:16:00,
2013-05-09 01:21:00,53.6,52.5,29.98,North,357,0.0,0.0,96,0.00,,-RA,0.00,VWS V14.00,2013-05-09 05:21:00,
2013-05-09 01:26:00,53.6,52.5,29.97,North,356,0.0,0.0,96,0.00,,-RA,0.00,VWS V14.00,2013-05-09 05:26:00,
2013-05-09 01:30:00,53.6,52.5,29.97,North,357,0.0,0.0,96,0.01,,CLR,0.01,VWS V14.00,2013-05-09 05:30:00,
2013-05-09 01:31:00,53.6,52.5,29.97,North,357,0.0,0.0,96,0.01,,-RA,0.01,VWS V14.00,2013-05-09 05:31:00,
2013-05-09 01:36:00,53.7,52.6,29.97,North,357,0.0,0.0,96,0.01,,-RA,0.01,VWS V14.00,2013-05-09 05:36:00,
2013-05-09 01:41:00,53.7,52.6,29.97,North,357,0.0,0.0,96,0.01,,-RA,0.01,VWS V14.00,2013-05-09 05:41:00,
2013-05-09 01:46:00,53.8,52.7,29.97,North,356,0.0,0.0,96,0.01,,-RA,0.01,VWS V14.00,2013-05-09 05:46:00,
2013-05-09 01:51:00,53.8,52.7,29.97,North,357,0.0,0.0,96,0.01,,-RA,0.01,VWS V14.00,2013-05-09 05:51:00,
2013-05-09 01:57:00,53.9,52.8,29.97,North,357,0.0,0.0,96,0.01,,-RA,0.01,VWS V14.00,2013-05-09 05:57:00,
2013-05-09 02:00:00,53.9,52.8,29.96,North,356,0.0,0.0,96,0.02,,CLR,0.02,VWS V14.00,2013-05-09 06:00:00,
2013-05-09 02:02:00,54.0,52.9,29.96,North,356,0.0,0.0,96,0.02,,-RA,0.02,VWS V14.00,2013-05-09 06:02:00,
2013-05-09 02:07:00,53.9,52.8,29.96,North,356,0.0,0.0,96,0.02,,-RA,0.02,VWS V14.00,2013-05-09 06:07:00,
2013-05-09 02:12:00,53.8,52.7,29.96,North,357,0.0,0.0,96,0.03,,-RA,0.03,VWS V14.00,2013-05-09 06:12:00,
2013-05-09 02:17:00,53.9,52.8,29.95,North,356,0.0,0.0,96,0.03,,-RA,0.03,VWS V14.00,2013-05-09 06:17:00,
2013-05-09 02:22:00,53.9,52.8,29.95,North,356,0.0,0.0,96,0.03,,-RA,0.03,VWS V14.00,2013-05-09 06:22:00,
2013-05-09 02:27:00,54.0,52.9,29.95,North,356,0.0,0.0,96,0.03,,-RA,0.03,VWS V14.00,2013-05-09 06:27:00,
2013-05-09 02:30:00,54.0,52.9,29.95,North,357,0.0,0.0,96,0.03,,CLR,0.03,VWS V14.00,2013-05-09 06:30:00,
2013-05-09 02:32:00,53.9,52.8,29.95,North,357,0.0,0.0,96,0.02,,-RA,0.03,VWS V14.00,2013-05-09 06:32:00,
2013-05-09 02:37:00,53.9,52.8,29.95,North,357,0.0,0.0,96,0.02,,-RA,0.03,VWS V14.00,2013-05-09 06:37:00,
2013-05-09 02:42:00,53.9,52.8,29.95,North,357,0.0,0.0,96,0.02,,-RA,0.03,VWS V14.00,2013-05-09 06:42:00,
2013-05-09 02:47:00,53.9,52.8,29.94,North,356,0.0,0.0,96,0.02,,-RA,0.03,VWS V14.00,2013-05-09 06:47:00,
2013-05-09 02:52:00,53.9,52.8,29.94,North,356,0.0,0.0,96,0.02,,-RA,0.03,VWS V14.00,2013-05-09 06:52:00,
2013-05-09 02:57:00,53.9,52.8,29.94,North,356,0.0,0.0,96,0.02,,-RA,0.03,VWS V14.00,2013-05-09 06:57:00,
2013-05-09 03:00:00,53.9,52.8,29.94,North,357,0.0,0.0,96,0.02,,CLR,0.03,VWS V14.00,2013-05-09 07:00:00,
2013-05-09 03:02:00,53.9,52.8,29.94,North,357,0.0,0.0,96,0.01,,-RA,0.03,VWS V14.00,2013-05-09 07:02:00,
2013-05-09 03:07:00,53.8,52.7,29.94,NE,46,0.0,0.0,96,0.01,,-RA,0.03,VWS V14.00,2013-05-09 07:07:00,
2013-05-09 03:12:00,53.7,52.6,29.94,NE,47,0.0,1.0,96,0.01,,-RA,0.03,VWS V14.00,2013-05-09 07:12:00,
2013-05-09 03:17:00,53.7,52.6,29.94,NE,47,0.0,1.0,96,0.01,,-RA,0.03,VWS V14.00,2013-05-09 07:17:00,
2013-05-09 03:22:00,53.7,52.6,29.94,NNE,19,0.0,1.0,96,0.01,,-RA,0.03,VWS V14.00,2013-05-09 07:22:00,
2013-05-09 03:27:00,53.6,52.5,29.94,NNE,19,0.0,1.0,96,0.01,,-RA,0.03,VWS V14.00,2013-05-09 07:27:00,
2013-05-09 03:30:00,53.6,52.5,29.94,NNE,19,1.0,1.0,96,0.01,,CLR,0.03,VWS V14.00,2013-05-09 07:30:00,
2013-05-09 03:32:00,53.6,52.5,29.94,NNW,339,0.0,1.0,96,0.00,,-RA,0.03,VWS V14.00,2013-05-09 07:32:00,
2013-05-09 03:37:00,53.6,52.5,29.94,NNW,339,0.0,1.0,96,0.00,,-RA,0.03,VWS V14.00,2013-05-09 07:37:00,
2013-05-09 03:42:00,53.6,52.5,29.93,NNW,339,0.0,1.0,96,0.00,,-RA,0.03,VWS V14.00,2013-05-09 07:42:00,
2013-05-09 03:48:00,53.6,52.5,29.93,NNW,339,0.0,1.0,96,0.00,,-RA,0.03,VWS V14.00,2013-05-09 07:48:00,
2013-05-09 03:53:00,53.6,52.5,29.93,NNW,341,0.0,1.0,96,0.00,,-RA,0.03,VWS V14.00,2013-05-09 07:53:00,
2013-05-09 03:58:00,53.6,52.5,29.94,NNW,341,0.0,1.0,96,0.00,,-RA,0.03,VWS V14.00,2013-05-09 07:58:00,
2013-05-09 04:00:00,53.7,52.6,29.94,NNW,342,0.0,1.0,96,0.00,,CLR,0.03,VWS V14.00,2013-05-09 08:00:00,
2013-05-09 04:03:00,53.7,52.6,29.94,NNW,342,0.0,0.0,96,0.00,,,0.03,VWS V14.00,2013-05-09 08:03:00,
2013-05-09 04:08:00,53.7,52.6,29.94,NNW,342,0.0,0.0,96,0.00,,,0.03,VWS V14.00,2013-05-09 08:08:00,
2013-05-09 04:13:00,53.6,52.5,29.94,NNW,341,0.0,0.0,96,0.00,,,0.03,VWS V14.00,2013-05-09 08:13:00,
2013-05-09 04:18:00,53.6,52.5,29.94,NNW,341,0.0,0.0,96,0.00,,,0.03,VWS V14.00,2013-05-09 08:18:00,
2013-05-09 04:23:00,53.6,52.5,29.94,NNW,341,0.0,0.0,96,0.00,,,0.03,VWS V14.00,2013-05-09 08:23:00,
2013-05-09 04:28:00,53.6,52.5,29.94,NNW,341,0.0,0.0,96,0.00,,,0.03,VWS V14.00,2013-05-09 08:28:00,
2013-05-09 04:30:00,53.6,52.5,29.94,NNW,341,0.0,0.0,96,0.00,,CLR,0.03,VWS V14.00,2013-05-09 08:30:00,
2013-05-09 04:33:00,53.5,52.4,29.94,NNW,341,0.0,0.0,96,0.00,,,0.03,VWS V14.00,2013-05-09 08:33:00,
2013-05-09 04:38:00,53.5,52.4,29.94,NNW,341,0.0,0.0,96,0.00,,,0.03,VWS V14.00,2013-05-09 08:38:00,
2013-05-09 04:43:00,53.5,52.4,29.94,NNW,341,0.0,0.0,96,0.00,,,0.03,VWS V14.00,2013-05-09 08:43:00,
2013-05-09 04:48:00,53.5,52.4,29.94,NNW,342,0.0,0.0,96,0.00,,,0.03,VWS V14.00,2013-05-09 08:48:00,
2013-05-09 04:53:00,53.4,52.3,29.94,NNW,341,0.0,0.0,96,0.00,,,0.03,VWS V14.00,2013-05-09 08:53:00,
2013-05-09 04:58:00,53.4,52.3,29.94,NNW,341,0.0,0.0,96,0.01,,,0.04,VWS V14.00,2013-05-09 08:58:00,
2013-05-09 05:00:00,53.4,52.3,29.94,NNW,341,0.0,0.0,96,0.01,,CLR,0.04,VWS V14.00,2013-05-09 09:00:00,
2013-05-09 05:03:00,53.5,52.4,29.94,NNW,341,0.0,0.0,96,0.02,,-RA,0.05,VWS V14.00,2013-05-09 09:03:00,
2013-05-09 05:08:00,53.5,52.4,29.94,NNW,341,0.0,0.0,96,0.02,,-RA,0.05,VWS V14.00,2013-05-09 09:08:00,
2013-05-09 05:13:00,53.6,52.5,29.94,NNW,341,0.0,0.0,96,0.03,,,0.06,VWS V14.00,2013-05-09 09:13:00,
2013-05-09 05:18:00,53.6,52.5,29.95,NNW,341,0.0,0.0,96,0.03,,,0.06,VWS V14.00,2013-05-09 09:18:00,
2013-05-09 05:23:00,53.7,52.6,29.95,NNW,341,0.0,0.0,96,0.03,,,0.06,VWS V14.00,2013-05-09 09:23:00,
2013-05-09 05:28:00,53.8,52.7,29.94,NNW,341,0.0,1.0,96,0.04,,,0.07,VWS V14.00,2013-05-09 09:28:00,
2013-05-09 05:30:00,53.7,52.6,29.94,NNW,341,0.0,1.0,96,0.04,,CLR,0.07,VWS V14.00,2013-05-09 09:30:00,
2013-05-09 05:33:00,53.7,52.6,29.94,NNW,341,0.0,0.0,96,0.04,,-RA,0.07,VWS V14.00,2013-05-09 09:33:00,
2013-05-09 05:38:00,53.7,52.6,29.94,NNW,341,0.0,0.0,96,0.05,,-RA,0.08,VWS V14.00,2013-05-09 09:38:00,
2013-05-09 05:43:00,53.7,52.6,29.94,NNW,341,0.0,1.0,96,0.05,,-RA,0.08,VWS V14.00,2013-05-09 09:43:00,
2013-05-09 05:49:00,53.8,52.7,29.94,NNW,341,0.0,1.0,96,0.05,,-RA,0.08,VWS V14.00,2013-05-09 09:49:00,
2013-05-09 05:54:00,53.8,52.7,29.94,NNW,341,0.0,1.0,96,0.05,,-RA,0.08,VWS V14.00,2013-05-09 09:54:00,
2013-05-09 05:59:00,53.8,52.7,29.94,NNW,341,0.0,1.0,96,0.05,,-RA,0.08,VWS V14.00,2013-05-09 09:59:00,
2013-05-09 06:00:00,53.8,52.7,29.94,NNW,341,0.0,1.0,96,0.05,,CLR,0.08,VWS V14.00,2013-05-09 10:00:00,
2013-05-09 06:04:00,53.9,52.8,29.94,NNW,341,1.0,1.0,96,0.04,, +RA,0.08,VWS V14.00,2013-05-09 10:04:00,
2013-05-09 06:09:00,53.9,52.8,29.94,NNW,341,0.0,2.0,96,0.05,, +RA,0.09,VWS V14.00,2013-05-09 10:09:00,
2013-05-09 06:14:00,54.0,52.9,29.94,NNW,342,0.0,2.0,96,0.07,,RA,0.11,VWS V14.00,2013-05-09 10:14:00,
2013-05-09 06:19:00,54.1,53.0,29.94,NNW,341,0.0,2.0,96,0.10,,RA,0.14,VWS V14.00,2013-05-09 10:19:00,
2013-05-09 06:24:00,54.2,53.1,29.93,ENE,58,1.0,2.0,96,0.12,,RA,0.16,VWS V14.00,2013-05-09 10:24:00,
2013-05-09 06:29:00,54.3,53.2,29.94,North,359,0.0,2.0,96,0.14,,RA,0.18,VWS V14.00,2013-05-09 10:29:00,
2013-05-09 06:30:00,54.3,53.2,29.94,North,360,0.0,2.0,96,0.14,,CLR,0.18,VWS V14.00,2013-05-09 10:30:00,
2013-05-09 06:34:00,54.3,53.2,29.94,North,7,1.0,2.0,96,0.12,,RA,0.19,VWS V14.00,2013-05-09 10:34:00,
2013-05-09 06:39:00,54.4,53.3,29.94,North,8,0.0,2.0,96,0.13,,RA,0.20,VWS V14.00,2013-05-09 10:39:00,
2013-05-09 06:44:00,54.5,53.4,29.94,North,6,2.0,2.0,96,0.17,,RA,0.24,VWS V14.00,2013-05-09 10:44:00,
2013-05-09 06:49:00,54.5,53.4,29.94,North,357,0.0,2.0,96,0.22,,RA,0.29,VWS V14.00,2013-05-09 10:49:00,
2013-05-09 06:54:00,54.5,53.4,29.94,NNW,339,0.0,2.0,96,0.24,,RA,0.31,VWS V14.00,2013-05-09 10:54:00,
2013-05-09 06:59:00,54.6,53.5,29.94,NNW,342,1.0,2.0,96,0.27,,RA,0.34,VWS V14.00,2013-05-09 10:59:00,
2013-05-09 07:00:00,54.6,53.5,29.94,NNW,329,2.0,2.0,96,0.27,,CLR,0.34,VWS V14.00,2013-05-09 11:00:00,
2013-05-09 07:04:00,54.7,53.6,29.94,NNE,20,0.0,2.0,96,0.28,,RA,0.36,VWS V14.00,2013-05-09 11:04:00,
2013-05-09 07:09:00,54.8,53.7,29.94,NNE,27,1.0,2.0,96,0.30,,RA,0.38,VWS V14.00,2013-05-09 11:09:00,
2013-05-09 07:14:00,54.9,53.8,29.94,SE,145,1.0,2.0,96,0.31,,RA,0.39,VWS V14.00,2013-05-09 11:14:00,
2013-05-09 07:19:00,54.9,53.8,29.94,SE,145,0.0,2.0,96,0.32,,RA,0.40,VWS V14.00,2013-05-09 11:19:00,
2013-05-09 07:24:00,54.9,53.8,29.94,ENE,74,0.0,2.0,96,0.34,,-RA,0.42,VWS V14.00,2013-05-09 11:24:00,
2013-05-09 07:29:00,55.0,53.9,29.94,NNE,13,1.0,2.0,96,0.35,,-RA,0.43,VWS V14.00,2013-05-09 11:29:00,
2013-05-09 07:30:00,55.0,53.9,29.94,NNE,13,1.0,2.0,96,0.35,,CLR,0.43,VWS V14.00,2013-05-09 11:30:00,
2013-05-09 07:34:00,55.0,53.9,29.94,North,5,0.0,2.0,96,0.27,,-RA,0.45,VWS V14.00,2013-05-09 11:34:00,
2013-05-09 07:39:00,55.1,54.0,29.95,ENE,58,1.0,2.0,96,0.28,,-RA,0.46,VWS V14.00,2013-05-09 11:39:00,
2013-05-09 07:44:00,55.3,54.2,29.95,NNE,27,0.0,2.0,96,0.28,,-RA,0.46,VWS V14.00,2013-05-09 11:44:00,
2013-05-09 07:49:00,55.4,54.3,29.95,NNE,27,0.0,2.0,96,0.28,,-RA,0.46,VWS V14.00,2013-05-09 11:49:00,
2013-05-09 07:55:00,55.5,54.4,29.95,ENE,65,0.0,2.0,96,0.29,,-RA,0.47,VWS V14.00,2013-05-09 11:55:00,
2013-05-09 08:00:00,55.6,54.5,29.95,ENE,65,0.0,0.0,96,0.13,,-RA,0.47,VWS V14.00,2013-05-09 12:00:00,
2013-05-09 08:05:00,55.8,55.0,29.95,ENE,65,0.0,0.0,97,0.13,,-RA,0.47,VWS V14.00,2013-05-09 12:05:00,
2013-05-09 08:10:00,56.0,55.2,29.95,NNE,27,2.0,2.0,97,0.13,,-RA,0.47,VWS V14.00,2013-05-09 12:10:00,
2013-05-09 08:15:00,56.0,55.2,29.95,North,3,0.0,2.0,97,0.13,,-RA,0.47,VWS V14.00,2013-05-09 12:15:00,
2013-05-09 08:20:00,56.2,55.4,29.95,North,1,1.0,2.0,97,0.13,,-RA,0.47,VWS V14.00,2013-05-09 12:20:00,
2013-05-09 08:25:00,56.3,55.5,29.95,North,351,0.0,2.0,97,0.13,,OVC018,0.47,VWS V14.00,2013-05-09 12:25:00,
2013-05-09 08:30:00,56.4,55.3,29.95,NNE,17,0.0,0.0,96,0.04,,OVC018,0.47,VWS V14.00,2013-05-09 12:30:00,
2013-05-09 08:35:00,56.4,55.3,29.95,NE,56,1.0,5.0,96,0.04,,OVC018,0.47,VWS V14.00,2013-05-09 12:35:00,
2013-05-09 08:40:00,56.5,55.4,29.95,NE,34,1.0,5.0,96,0.04,,OVC018,0.47,VWS V14.00,2013-05-09 12:40:00,
2013-05-09 08:45:00,56.6,55.5,29.94,North,3,0.0,5.0,96,0.04,,OVC018,0.47,VWS V14.00,2013-05-09 12:45:00,
2013-05-09 08:50:00,56.8,55.7,29.95,NNE,14,0.0,5.0,96,0.04,,OVC018,0.47,VWS V14.00,2013-05-09 12:50:00,
2013-05-09 08:55:00,56.9,55.8,29.95,ENE,70,1.0,5.0,96,0.04,,OVC018,0.47,VWS V14.00,2013-05-09 12:55:00,
2013-05-09 09:00:00,56.8,55.7,29.95,NE,52,0.0,2.0,96,0.00,,OVC018,0.47,VWS V14.00,2013-05-09 13:00:00,
2013-05-09 09:05:00,56.7,55.6,29.95,North,352,1.0,3.0,96,0.00,,OVC080,0.47,VWS V14.00,2013-05-09 13:05:00,
2013-05-09 09:10:00,56.8,55.7,29.95,North,11,2.0,3.0,96,0.00,,OVC080,0.47,VWS V14.00,2013-05-09 13:10:00,
2013-05-09 09:15:00,57.0,55.9,29.95,North,5,0.0,3.0,96,0.00,,OVC080,0.47,VWS V14.00,2013-05-09 13:15:00,
2013-05-09 09:20:00,57.1,56.0,29.95,North,4,1.0,3.0,96,0.00,,OVC080,0.47,VWS V14.00,2013-05-09 13:20:00,
2013-05-09 09:25:00,57.2,56.1,29.95,NNE,19,0.0,3.0,96,0.00,,OVC080,0.47,VWS V14.00,2013-05-09 13:25:00,
2013-05-09 09:30:00,57.5,56.4,29.95,NNE,29,0.0,0.0,96,0.00,,OVC080,0.47,VWS V14.00,2013-05-09 13:30:00,
2013-05-09 09:35:00,57.8,56.7,29.95,NE,35,0.0,1.0,96,0.00,,OVC080,0.47,VWS V14.00,2013-05-09 13:35:00,
2013-05-09 09:40:00,58.2,57.1,29.95,NW,308,0.0,2.0,96,0.00,,OVC080,0.47,VWS V14.00,2013-05-09 13:40:00,
2013-05-09 09:45:00,58.2,56.8,29.95,NNW,330,1.0,2.0,95,0.00,,OVC080,0.47,VWS V14.00,2013-05-09 13:45:00,
2013-05-09 09:51:00,58.3,56.6,29.95,NE,44,1.0,4.0,94,0.00,,OVC080,0.47,VWS V14.00,2013-05-09 13:51:00,
2013-05-09 09:56:00,58.7,57.0,29.95,NNE,13,1.0,4.0,94,0.00,,OVC080,0.47,VWS V14.00,2013-05-09 13:56:00,
2013-05-09 10:00:00,59.0,57.0,29.95,ENE,72,1.0,4.0,93,0.00,,CLR,0.47,VWS V14.00,2013-05-09 14:00:00,
2013-05-09 10:01:00,59.2,57.2,29.95,NE,55,0.0,1.0,93,0.00,,OVC030,0.47,VWS V14.00,2013-05-09 14:01:00,
2013-05-09 10:06:00,59.8,57.5,29.95,ENE,70,0.0,2.0,92,0.00,,OVC030,0.47,VWS V14.00,2013-05-09 14:06:00,
2013-05-09 10:11:00,60.7,57.8,29.95,NNE,13,1.0,2.0,90,0.00,,OVC032,0.47,VWS V14.00,2013-05-09 14:11:00,
2013-05-09 10:16:00,61.0,57.7,29.95,East,82,1.0,3.0,89,0.00,,OVC032,0.47,VWS V14.00,2013-05-09 14:16:00,
2013-05-09 10:21:00,61.6,57.7,29.95,NNE,15,1.0,3.0,87,0.00,,OVC035,0.47,VWS V14.00,2013-05-09 14:21:00,
2013-05-09 10:26:00,61.8,57.6,29.95,SSW,195,1.0,3.0,86,0.00,,OVC035,0.47,VWS V14.00,2013-05-09 14:26:00,
2013-05-09 10:30:00,62.1,57.9,29.95,SSW,198,0.0,3.0,86,0.00,,CLR,0.47,VWS V14.00,2013-05-09 14:30:00,
2013-05-09 10:31:00,62.1,57.5,29.95,SSW,198,1.0,1.0,85,0.00,,OVC035,0.47,VWS V14.00,2013-05-09 14:31:00,
2013-05-09 10:36:00,62.6,58.4,29.95,NNW,347,1.0,1.0,86,0.00,,OVC035,0.47,VWS V14.00,2013-05-09 14:36:00,
2013-05-09 10:41:00,63.9,58.6,29.95,NNE,16,0.0,3.0,83,0.00,,OVC035,0.47,VWS V14.00,2013-05-09 14:41:00,
2013-05-09 10:46:00,64.3,58.7,29.95,NE,53,1.0,3.0,82,0.00,,OVC035,0.47,VWS V14.00,2013-05-09 14:46:00,
2013-05-09 10:51:00,64.1,58.5,29.95,WSW,240,2.0,3.0,82,0.00,,OVC035,0.47,VWS V14.00,2013-05-09 14:51:00,
2013-05-09 10:56:00,64.0,57.7,29.95,West,274,1.0,3.0,80,0.00,,OVC035,0.47,VWS V14.00,2013-05-09 14:56:00,
2013-05-09 11:00:00,63.7,58.1,29.95,ENE,58,1.0,3.0,82,0.00,,CLR,0.47,VWS V14.00,2013-05-09 15:00:00,
2013-05-09 11:01:00,63.7,57.8,29.95,NNW,347,1.0,2.0,81,0.00,,BKN075,0.47,VWS V14.00,2013-05-09 15:01:00,
2013-05-09 11:06:00,63.4,58.2,29.95,WSW,257,1.0,3.0,83,0.00,,BKN075,0.47,VWS V14.00,2013-05-09 15:06:00,
2013-05-09 11:11:00,64.1,57.8,29.95,NNW,328,1.0,3.0,80,0.00,,BKN075,0.47,VWS V14.00,2013-05-09 15:11:00,
2013-05-09 11:16:00,65.0,57.6,29.95,West,270,1.0,5.0,77,0.00,,BKN075,0.47,VWS V14.00,2013-05-09 15:16:00,
2013-05-09 11:21:00,65.2,58.5,29.95,NNW,341,1.0,5.0,79,0.00,,BKN075,0.47,VWS V14.00,2013-05-09 15:21:00,
2013-05-09 11:26:00,65.6,57.8,29.95,NNW,329,0.0,5.0,76,0.00,,BKN075,0.47,VWS V14.00,2013-05-09 15:26:00,
2013-05-09 11:30:00,66.2,59.2,29.95,NNW,333,1.0,5.0,78,0.00,,CLR,0.47,VWS V14.00,2013-05-09 15:30:00,
2013-05-09 11:31:00,66.1,57.6,29.95,NW,315,0.0,3.0,74,0.00,,BKN041,0.47,VWS V14.00,2013-05-09 15:31:00,
2013-05-09 11:36:00,66.6,58.1,29.95,WNW,297,1.0,3.0,74,0.00,,BKN041,0.47,VWS V14.00,2013-05-09 15:36:00,
2013-05-09 11:41:00,65.8,57.3,29.95,NW,324,1.0,3.0,74,0.00,,BKN041,0.47,VWS V14.00,2013-05-09 15:41:00,
2013-05-09 11:47:00,65.0,57.6,29.95,NNW,333,1.0,4.0,77,0.00,,BKN041,0.47,VWS V14.00,2013-05-09 15:47:00,
2013-05-09 11:52:00,64.8,57.4,29.95,WNW,302,2.0,5.0,77,0.00,,BKN041,0.47,VWS V14.00,2013-05-09 15:52:00,
2013-05-09 11:57:00,64.8,56.7,29.94,North,349,2.0,5.0,75,0.00,,BKN041,0.47,VWS V14.00,2013-05-09 15:57:00,
2013-05-09 12:00:00,64.7,57.0,29.94,NNW,340,3.0,5.0,76,0.00,,CLR,0.47,VWS V14.00,2013-05-09 16:00:00,
2013-05-09 12:02:00,64.5,57.1,29.94,North,9,3.0,3.0,77,0.00,,BKN050,0.47,VWS V14.00,2013-05-09 16:02:00,
2013-05-09 12:07:00,64.9,57.9,29.94,NNW,339,1.0,4.0,78,0.00,,BKN050,0.47,VWS V14.00,2013-05-09 16:07:00,
2013-05-09 12:12:00,65.5,57.7,29.94,WSW,256,1.0,4.0,76,0.00,,BKN050,0.47,VWS V14.00,2013-05-09 16:12:00,
2013-05-09 12:17:00,66.4,57.9,29.94,South,184,1.0,4.0,74,0.00,,BKN050,0.47,VWS V14.00,2013-05-09 16:17:00,
2013-05-09 12:22:00,66.9,58.7,29.94,SE,143,1.0,4.0,75,0.00,,BKN050,0.47,VWS V14.00,2013-05-09 16:22:00,
2013-05-09 12:27:00,67.3,58.4,29.94,NNW,329,3.0,4.0,73,0.00,,BKN050,0.47,VWS V14.00,2013-05-09 16:27:00,
2013-05-09 12:30:00,66.7,57.0,29.94,NNW,329,3.0,7.0,71,0.00,,CLR,0.47,VWS V14.00,2013-05-09 16:30:00,
2013-05-09 12:32:00,66.1,57.6,29.94,NNW,330,2.0,5.0,74,0.00,,BKN050,0.47,VWS V14.00,2013-05-09 16:32:00,
2013-05-09 12:37:00,67.2,60.1,29.94,NNE,20,1.0,6.0,78,0.00,,BKN050,0.47,VWS V14.00,2013-05-09 16:37:00,
2013-05-09 12:42:00,67.0,56.5,29.93,NW,316,2.0,6.0,69,0.00,,BKN050,0.47,VWS V14.00,2013-05-09 16:42:00,
2013-05-09 12:47:00,66.3,56.6,29.93,North,1,0.0,6.0,71,0.00,,BKN050,0.47,VWS V14.00,2013-05-09 16:47:00,
2013-05-09 12:52:00,66.5,58.0,29.93,WNW,301,1.0,6.0,74,0.00,,BKN050,0.47,VWS V14.00,2013-05-09 16:52:00,
2013-05-09 12:57:00,67.0,57.3,29.93,WNW,295,1.0,6.0,71,0.00,,BKN050,0.47,VWS V14.00,2013-05-09 16:57:00,
2013-05-09 13:00:00,67.1,57.8,29.93,NNW,331,3.0,6.0,72,0.00,,CLR,0.47,VWS V14.00,2013-05-09 17:00:00,
2013-05-09 13:02:00,67.1,57.8,29.93,NE,37,4.0,7.0,72,0.00,,BKN075,0.47,VWS V14.00,2013-05-09 17:02:00,
2013-05-09 13:07:00,67.7,58.0,29.93,WNW,291,1.0,7.0,71,0.00,,BKN075,0.47,VWS V14.00,2013-05-09 17:07:00,
2013-05-09 13:12:00,68.8,57.0,29.93,WNW,302,1.0,7.0,66,0.00,,BKN075,0.47,VWS V14.00,2013-05-09 17:12:00,
2013-05-09 13:17:00,68.7,56.0,29.93,NNW,336,2.0,7.0,64,0.00,,BKN075,0.47,VWS V14.00,2013-05-09 17:17:00,
2013-05-09 13:22:00,69.1,57.3,29.93,SW,224,0.0,7.0,66,0.00,,BKN075,0.47,VWS V14.00,2013-05-09 17:22:00,
2013-05-09 13:27:00,69.7,56.1,29.92,WSW,256,2.0,7.0,62,0.00,,BKN075,0.47,VWS V14.00,2013-05-09 17:27:00,
2013-05-09 13:30:00,69.7,56.6,29.92,WSW,258,1.0,7.0,63,0.00,,CLR,0.47,VWS V14.00,2013-05-09 17:30:00,
2013-05-09 13:32:00,70.9,58.1,29.92,NNW,331,5.0,7.0,64,0.00,,BKN075,0.47,VWS V14.00,2013-05-09 17:32:00,
2013-05-09 13:38:00,70.6,56.1,29.92,NW,323,4.0,7.0,60,0.00,,BKN075,0.47,VWS V14.00,2013-05-09 17:38:00,
2013-05-09 13:43:00,70.3,57.6,29.92,North,1,5.0,11.0,64,0.00,,BKN075,0.47,VWS V14.00,2013-05-09 17:43:00,
2013-05-09 13:48:00,69.2,55.2,29.92,NNW,340,1.0,11.0,61,0.00,,BKN075,0.47,VWS V14.00,2013-05-09 17:48:00,
2013-05-09 13:53:00,69.8,57.5,29.92,NW,304,4.0,11.0,65,0.00,,BKN075,0.47,VWS V14.00,2013-05-09 17:53:00,
2013-05-09 13:58:00,69.9,55.4,29.91,NW,326,2.0,11.0,60,0.00,,BKN075,0.47,VWS V14.00,2013-05-09 17:58:00,
2013-05-09 14:00:00,69.7,55.7,29.91,WNW,302,3.0,11.0,61,0.00,,CLR,0.47,VWS V14.00,2013-05-09 18:00:00,
2013-05-09 14:03:00,70.2,56.6,29.91,NW,315,4.0,4.0,62,0.00,,BKN095,0.47,VWS V14.00,2013-05-09 18:03:00,
2013-05-09 14:08:00,70.5,55.5,29.91,ENE,63,2.0,6.0,59,0.00,,BKN095,0.47,VWS V14.00,2013-05-09 18:08:00,
2013-05-09 14:13:00,70.1,54.7,29.91,NNW,345,1.0,8.0,58,0.00,,BKN095,0.47,VWS V14.00,2013-05-09 18:13:00,
2013-05-09 14:18:00,70.1,56.5,29.91,WSW,257,2.0,8.0,62,0.00,,BKN095,0.47,VWS V14.00,2013-05-09 18:18:00,
2013-05-09 14:23:00,70.0,55.5,29.91,West,272,1.0,8.0,60,0.00,,BKN095,0.47,VWS V14.00,2013-05-09 18:23:00,
2013-05-09 14:28:00,69.6,56.9,29.91,NNW,339,1.0,8.0,64,0.00,,BKN095,0.47,VWS V14.00,2013-05-09 18:28:00,
2013-05-09 14:30:00,69.6,56.5,29.91,NW,311,3.0,8.0,63,0.00,,CLR,0.47,VWS V14.00,2013-05-09 18:30:00,
2013-05-09 14:33:00,69.3,56.2,29.91,WNW,289,2.0,5.0,63,0.00,,BKN095,0.47,VWS V14.00,2013-05-09 18:33:00,
2013-05-09 14:38:00,68.6,55.5,29.91,WNW,282,1.0,5.0,63,0.00,,BKN095,0.47,VWS V14.00,2013-05-09 18:38:00,
2013-05-09 14:43:00,68.1,56.7,29.92,NNW,345,1.0,5.0,67,0.00,,BKN095,0.47,VWS V14.00,2013-05-09 18:43:00,
2013-05-09 14:49:00,67.7,57.2,29.92,WSW,246,2.0,5.0,69,0.00,,BKN095,0.47,VWS V14.00,2013-05-09 18:49:00,
2013-05-09 14:54:00,67.1,57.4,29.92,West,281,1.0,5.0,71,0.00,,BKN095,0.47,VWS V14.00,2013-05-09 18:54:00,
2013-05-09 14:59:00,66.7,56.6,29.91,North,3,1.0,5.0,70,0.00,,BKN095,0.47,VWS V14.00,2013-05-09 18:59:00,
2013-05-09 15:00:00,66.7,57.0,29.91,West,263,3.0,5.0,71,0.00,,CLR,0.47,VWS V14.00,2013-05-09 19:00:00,
2013-05-09 15:04:00,66.8,57.5,29.91,SW,227,1.0,5.0,72,0.00,,OVC090,0.47,VWS V14.00,2013-05-09 19:04:00,
2013-05-09 15:09:00,67.3,58.0,29.91,SSW,207,1.0,5.0,72,0.00,,OVC090,0.47,VWS V14.00,2013-05-09 19:09:00,
2013-05-09 15:14:00,67.7,57.2,29.91,WSW,248,1.0,5.0,69,0.00,,OVC090,0.47,VWS V14.00,2013-05-09 19:14:00,
2013-05-09 15:19:00,67.9,57.8,29.91,SE,145,2.0,5.0,70,0.00,,OVC090,0.47,VWS V14.00,2013-05-09 19:19:00,
2013-05-09 15:24:00,67.9,56.5,29.91,South,181,2.0,8.0,67,0.00,,OVC090,0.47,VWS V14.00,2013-05-09 19:24:00,
2013-05-09 15:29:00,67.8,56.9,29.91,SSW,212,7.0,8.0,68,0.00,,OVC090,0.47,VWS V14.00,2013-05-09 19:29:00,
2013-05-09 15:30:00,67.8,56.9,29.91,SSW,194,1.0,8.0,68,0.00,,CLR,0.47,VWS V14.00,2013-05-09 19:30:00,
2013-05-09 15:34:00,68.3,58.2,29.91,SSW,204,2.0,4.0,70,0.00,,OVC090,0.47,VWS V14.00,2013-05-09 19:34:00,
2013-05-09 15:39:00,68.5,57.5,29.91,WSW,255,3.0,6.0,68,0.00,,OVC090,0.47,VWS V14.00,2013-05-09 19:39:00,
2013-05-09 15:44:00,68.6,57.6,29.91,WSW,249,3.0,6.0,68,0.00,,OVC090,0.47,VWS V14.00,2013-05-09 19:44:00,
2013-05-09 15:49:00,68.8,58.6,29.91,South,179,2.0,6.0,70,0.00,,OVC090,0.47,VWS V14.00,2013-05-09 19:49:00,
2013-05-09 15:54:00,68.7,57.7,29.91,SSW,195,2.0,6.0,68,0.00,,OVC090,0.47,VWS V14.00,2013-05-09 19:54:00,
2013-05-09 15:59:00,68.6,57.2,29.91,SSW,204,2.0,7.0,67,0.00,,OVC090,0.47,VWS V14.00,2013-05-09 19:59:00,
2013-05-09 16:00:00,68.5,57.1,29.91,WSW,248,5.0,7.0,67,0.00,,CLR,0.47,VWS V14.00,2013-05-09 20:00:00,
2013-05-09 16:04:00,68.5,57.1,29.91,SW,215,0.0,5.0,67,0.00,,OVC100,0.47,VWS V14.00,2013-05-09 20:04:00,
2013-05-09 16:09:00,68.6,57.2,29.91,NW,305,1.0,5.0,67,0.00,,OVC100,0.47,VWS V14.00,2013-05-09 20:09:00,
2013-05-09 16:14:00,68.8,57.0,29.91,North,9,1.0,5.0,66,0.00,,OVC100,0.47,VWS V14.00,2013-05-09 20:14:00,
2013-05-09 16:19:00,69.3,57.9,29.91,SSE,149,1.0,5.0,67,0.00,,OVC100,0.47,VWS V14.00,2013-05-09 20:19:00,
2013-05-09 16:24:00,69.4,56.3,29.91,WSW,255,2.0,5.0,63,0.00,,OVC100,0.47,VWS V14.00,2013-05-09 20:24:00,
2013-05-09 16:29:00,69.1,56.4,29.91,West,276,1.0,5.0,64,0.00,,OVC100,0.47,VWS V14.00,2013-05-09 20:29:00,
2013-05-09 16:30:00,69.1,57.3,29.91,West,276,1.0,5.0,66,0.00,,CLR,0.47,VWS V14.00,2013-05-09 20:30:00,
2013-05-09 16:34:00,68.8,56.1,29.91,NNW,328,2.0,4.0,64,0.00,,OVC100,0.47,VWS V14.00,2013-05-09 20:34:00,
2013-05-09 16:39:00,68.7,56.5,29.91,NW,326,1.0,6.0,65,0.00,,OVC100,0.47,VWS V14.00,2013-05-09 20:39:00,
2013-05-09 16:44:00,68.5,56.7,29.91,WSW,249,1.0,6.0,66,0.00,,OVC100,0.47,VWS V14.00,2013-05-09 20:44:00,
2013-05-09 16:49:00,68.5,57.5,29.91,West,270,1.0,6.0,68,0.00,,OVC100,0.47,VWS V14.00,2013-05-09 20:49:00,
2013-05-09 16:55:00,68.5,57.1,29.91,NE,46,1.0,6.0,67,0.00,,OVC100,0.47,VWS V14.00,2013-05-09 20:55:00,
2013-05-09 17:00:00,68.6,56.4,29.91,WSW,237,1.0,1.0,65,0.00,,OVC100,0.47,VWS V14.00,2013-05-09 21:00:00,
2013-05-09 17:05:00,68.1,56.7,29.91,West,271,3.0,5.0,67,0.00,,OVC100,0.47,VWS V14.00,2013-05-09 21:05:00,
2013-05-09 17:10:00,67.7,56.8,29.91,SW,236,2.0,5.0,68,0.00,,OVC100,0.47,VWS V14.00,2013-05-09 21:10:00,
2013-05-09 17:15:00,67.5,57.0,29.91,SW,219,1.0,5.0,69,0.00,,OVC100,0.47,VWS V14.00,2013-05-09 21:15:00,
2013-05-09 17:20:00,67.5,57.0,29.90,SSW,205,1.0,5.0,69,0.00,,OVC100,0.47,VWS V14.00,2013-05-09 21:20:00,
2013-05-09 17:25:00,67.7,57.6,29.91,WNW,293,0.0,5.0,70,0.00,,OVC100,0.47,VWS V14.00,2013-05-09 21:25:00,
2013-05-09 17:30:00,67.9,57.0,29.90,West,269,0.0,1.0,68,0.00,,OVC100,0.47,VWS V14.00,2013-05-09 21:30:00,
2013-05-09 17:35:00,68.6,57.6,29.90,SW,229,1.0,3.0,68,0.00,,OVC100,0.47,VWS V14.00,2013-05-09 21:35:00,
2013-05-09 17:40:00,69.2,57.8,29.90,South,172,0.0,4.0,67,0.00,,OVC100,0.47,VWS V14.00,2013-05-09 21:40:00,
2013-05-09 17:45:00,69.2,57.4,29.90,West,259,1.0,4.0,66,0.00,,OVC100,0.47,VWS V14.00,2013-05-09 21:45:00,
2013-05-09 17:50:00,68.9,57.1,29.90,West,276,0.0,4.0,66,0.00,,OVC100,0.47,VWS V14.00,2013-05-09 21:50:00,
2013-05-09 17:55:00,69.2,57.0,29.90,SW,234,0.0,4.0,65,0.00,,OVC100,0.47,VWS V14.00,2013-05-09 21:55:00,
2013-05-09 18:00:00,69.1,56.8,29.91,SW,235,0.0,0.0,65,0.00,,OVC100,0.47,VWS V14.00,2013-05-09 22:00:00,
2013-05-09 18:05:00,69.1,57.3,29.91,SW,235,0.0,0.0,66,0.00,,CLR,0.47,VWS V14.00,2013-05-09 22:05:00,
2013-05-09 18:10:00,69.0,56.3,29.90,South,172,1.0,4.0,64,0.00,,CLR,0.47,VWS V14.00,2013-05-09 22:10:00,
2013-05-09 18:15:00,69.0,56.8,29.91,SW,216,1.0,5.0,65,0.00,,CLR,0.47,VWS V14.00,2013-05-09 22:15:00,
2013-05-09 18:20:00,69.0,56.8,29.90,South,190,1.0,5.0,65,0.00,,CLR,0.47,VWS V14.00,2013-05-09 22:20:00,
2013-05-09 18:25:00,68.8,57.8,29.91,WSW,253,1.0,5.0,68,0.00,,CLR,0.47,VWS V14.00,2013-05-09 22:25:00,
2013-05-09 18:30:00,68.5,56.3,29.90,West,277,0.0,1.0,65,0.00,,CLR,0.47,VWS V14.00,2013-05-09 22:30:00,
2013-05-09 18:36:00,68.4,57.0,29.91,WSW,253,0.0,1.0,67,0.00,,CLR,0.47,VWS V14.00,2013-05-09 22:36:00,
2013-05-09 18:41:00,68.4,57.8,29.90,WSW,249,0.0,1.0,69,0.00,,CLR,0.47,VWS V14.00,2013-05-09 22:41:00,
2013-05-09 18:46:00,68.3,56.9,29.90,WSW,256,1.0,3.0,67,0.00,,CLR,0.47,VWS V14.00,2013-05-09 22:46:00,
2013-05-09 18:51:00,68.1,57.2,29.90,West,266,1.0,3.0,68,0.00,,CLR,0.47,VWS V14.00,2013-05-09 22:51:00,
2013-05-09 18:56:00,67.9,57.8,29.90,West,269,0.0,3.0,70,0.00,,CLR,0.47,VWS V14.00,2013-05-09 22:56:00,
2013-05-09 19:00:00,67.8,57.3,29.90,SSW,205,0.0,3.0,69,0.00,,CLR,0.47,VWS V14.00,2013-05-09 23:00:00,
2013-05-09 19:01:00,67.7,56.8,29.91,WNW,283,0.0,1.0,68,0.00,,SCT045,0.47,VWS V14.00,2013-05-09 23:01:00,
2013-05-09 19:06:00,67.6,57.1,29.91,West,259,0.0,1.0,69,0.00,,SCT045,0.47,VWS V14.00,2013-05-09 23:06:00,
2013-05-09 19:11:00,67.4,56.9,29.91,SW,225,1.0,2.0,69,0.00,,SCT045,0.47,VWS V14.00,2013-05-09 23:11:00,
2013-05-09 19:16:00,67.1,56.6,29.91,WSW,243,0.0,2.0,69,0.00,,SCT045,0.47,VWS V14.00,2013-05-09 23:16:00,
2013-05-09 19:21:00,66.8,56.7,29.91,WSW,243,0.0,2.0,70,0.00,,SCT045,0.47,VWS V14.00,2013-05-09 23:21:00,
2013-05-09 19:26:00,66.4,57.5,29.91,WSW,243,0.0,2.0,73,0.00,,SCT045,0.47,VWS V14.00,2013-05-09 23:26:00,
2013-05-09 19:30:00,66.0,57.9,29.91,WSW,243,0.0,2.0,75,0.00,,CLR,0.47,VWS V14.00,2013-05-09 23:30:00,
2013-05-09 19:31:00,65.8,57.7,29.91,WSW,243,0.0,0.0,75,0.00,,SCT045,0.47,VWS V14.00,2013-05-09 23:31:00,
2013-05-09 19:36:00,65.1,57.4,29.91,WSW,243,0.0,0.0,76,0.00,,SCT045,0.47,VWS V14.00,2013-05-09 23:36:00,
2013-05-09 19:41:00,64.3,56.6,29.92,WSW,243,0.0,0.0,76,0.00,,SCT045,0.47,VWS V14.00,2013-05-09 23:41:00,
2013-05-09 19:46:00,63.8,56.8,29.92,WSW,243,0.0,0.0,78,0.00,,SCT045,0.47,VWS V14.00,2013-05-09 23:46:00,
2013-05-09 19:51:00,63.4,56.8,29.92,WSW,243,0.0,0.0,79,0.00,,SCT045,0.47,VWS V14.00,2013-05-09 23:51:00,
2013-05-09 19:56:00,62.8,56.9,29.92,WSW,243,0.0,0.0,81,0.00,,SCT045,0.47,VWS V14.00,2013-05-09 23:56:00,
2013-05-09 20:00:00,62.5,56.9,29.92,WSW,243,0.0,0.0,82,0.00,,CLR,0.47,VWS V14.00,2013-05-10 00:00:00,
2013-05-09 20:01:00,62.4,56.8,29.92,WSW,244,0.0,0.0,82,0.00,,FEW110,0.47,VWS V14.00,2013-05-10 00:01:00,
2013-05-09 20:06:00,62.0,56.8,29.93,WSW,243,0.0,0.0,83,0.00,,FEW110,0.47,VWS V14.00,2013-05-10 00:06:00,
2013-05-09 20:11:00,61.5,56.6,29.93,WSW,244,0.0,0.0,84,0.00,,FEW110,0.47,VWS V14.00,2013-05-10 00:11:00,
2013-05-09 20:16:00,61.2,56.7,29.93,WSW,243,0.0,0.0,85,0.00,,FEW110,0.47,VWS V14.00,2013-05-10 00:16:00,
2013-05-09 20:21:00,61.1,56.6,29.93,WSW,244,0.0,0.0,85,0.00,,FEW110,0.47,VWS V14.00,2013-05-10 00:21:00,
2013-05-09 20:26:00,61.0,56.8,29.94,WSW,244,0.0,0.0,86,0.00,,FEW110,0.47,VWS V14.00,2013-05-10 00:26:00,
2013-05-09 20:30:00,60.9,56.7,29.93,WSW,243,0.0,0.0,86,0.00,,CLR,0.47,VWS V14.00,2013-05-10 00:30:00,
2013-05-09 20:32:00,60.9,56.7,29.94,WSW,243,0.0,0.0,86,0.00,,FEW110,0.47,VWS V14.00,2013-05-10 00:32:00,
2013-05-09 20:37:00,60.8,56.9,29.94,WSW,243,0.0,0.0,87,0.00,,FEW110,0.47,VWS V14.00,2013-05-10 00:37:00,
2013-05-09 20:42:00,60.7,56.8,29.94,WSW,243,0.0,0.0,87,0.00,,FEW110,0.47,VWS V14.00,2013-05-10 00:42:00,
2013-05-09 20:47:00,60.7,57.4,29.94,WSW,243,0.0,0.0,89,0.00,,FEW110,0.47,VWS V14.00,2013-05-10 00:47:00,
2013-05-09 20:52:00,60.7,57.4,29.94,WSW,243,0.0,0.0,89,0.00,,FEW110,0.47,VWS V14.00,2013-05-10 00:52:00,
2013-05-09 20:57:00,60.6,57.3,29.94,WSW,243,0.0,0.0,89,0.00,,FEW110,0.47,VWS V14.00,2013-05-10 00:57:00,
2013-05-09 21:00:00,60.5,57.2,29.94,WSW,243,0.0,0.0,89,0.00,,CLR,0.47,VWS V14.00,2013-05-10 01:00:00,
2013-05-09 21:02:00,60.4,57.2,29.94,WSW,243,0.0,0.0,89,0.00,,OVC100,0.47,VWS V14.00,2013-05-10 01:02:00,
2013-05-09 21:07:00,60.3,57.0,29.94,WSW,243,0.0,0.0,89,0.00,,OVC100,0.47,VWS V14.00,2013-05-10 01:07:00,
2013-05-09 21:12:00,60.2,57.3,29.94,WSW,243,0.0,0.0,90,0.00,,OVC100,0.47,VWS V14.00,2013-05-10 01:12:00,
2013-05-09 21:17:00,60.1,57.2,29.94,WSW,243,0.0,0.0,90,0.00,,OVC100,0.47,VWS V14.00,2013-05-10 01:17:00,
2013-05-09 21:22:00,59.9,57.0,29.94,WSW,243,0.0,0.0,90,0.00,,OVC100,0.47,VWS V14.00,2013-05-10 01:22:00,
2013-05-09 21:27:00,59.7,56.8,29.94,WSW,243,0.0,0.0,90,0.00,,OVC100,0.47,VWS V14.00,2013-05-10 01:27:00,
2013-05-09 21:30:00,59.7,56.8,29.94,WSW,243,0.0,0.0,90,0.00,,CLR,0.47,VWS V14.00,2013-05-10 01:30:00,
2013-05-09 21:32:00,59.7,57.1,29.94,WSW,243,0.0,0.0,91,0.00,,OVC100,0.47,VWS V14.00,2013-05-10 01:32:00,
2013-05-09 21:37:00,59.6,57.0,29.94,WSW,243,0.0,0.0,91,0.00,,OVC100,0.47,VWS V14.00,2013-05-10 01:37:00,
2013-05-09 21:42:00,59.5,56.9,29.94,WSW,243,0.0,0.0,91,0.00,,OVC100,0.47,VWS V14.00,2013-05-10 01:42:00,
2013-05-09 21:47:00,59.4,56.8,29.94,WSW,243,0.0,0.0,91,0.00,,OVC100,0.47,VWS V14.00,2013-05-10 01:47:00,
2013-05-09 21:52:00,59.2,56.6,29.94,WSW,243,0.0,1.0,91,0.00,,OVC100,0.47,VWS V14.00,2013-05-10 01:52:00,
2013-05-09 21:57:00,58.8,56.2,29.95,WSW,243,0.0,1.0,91,0.00,,OVC100,0.47,VWS V14.00,2013-05-10 01:57:00,
2013-05-09 22:00:00,58.6,56.0,29.94,WSW,243,0.0,1.0,91,0.00,,CLR,0.47,VWS V14.00,2013-05-10 02:00:00,
2013-05-09 22:02:00,58.5,56.2,29.95,WSW,243,0.0,0.0,92,0.00,,FEW100,0.47,VWS V14.00,2013-05-10 02:02:00,
2013-05-09 22:07:00,58.3,56.0,29.95,WSW,244,0.0,0.0,92,0.00,,FEW100,0.47,VWS V14.00,2013-05-10 02:07:00,
2013-05-09 22:12:00,58.2,55.9,29.95,WSW,243,0.0,0.0,92,0.00,,FEW100,0.47,VWS V14.00,2013-05-10 02:12:00,
2013-05-09 22:17:00,58.0,56.0,29.95,WSW,243,0.0,0.0,93,0.00,,FEW100,0.47,VWS V14.00,2013-05-10 02:17:00,
2013-05-09 22:22:00,57.8,55.8,29.95,WSW,243,0.0,0.0,93,0.00,,FEW100,0.47,VWS V14.00,2013-05-10 02:22:00,
2013-05-09 22:27:00,57.4,55.4,29.95,WSW,243,0.0,0.0,93,0.00,,FEW100,0.47,VWS V14.00,2013-05-10 02:27:00,
2013-05-09 22:30:00,57.2,55.2,29.95,WSW,243,0.0,0.0,93,0.00,,CLR,0.47,VWS V14.00,2013-05-10 02:30:00,
2013-05-09 22:33:00,57.0,55.0,29.95,WSW,243,0.0,0.0,93,0.00,,FEW100,0.47,VWS V14.00,2013-05-10 02:33:00,
2013-05-09 22:38:00,56.7,54.7,29.95,WSW,243,0.0,0.0,93,0.00,,FEW100,0.47,VWS V14.00,2013-05-10 02:38:00,
2013-05-09 22:43:00,56.6,54.9,29.95,WSW,243,0.0,0.0,94,0.00,,FEW100,0.47,VWS V14.00,2013-05-10 02:43:00,
2013-05-09 22:48:00,56.6,54.9,29.95,WSW,243,0.0,0.0,94,0.00,,FEW100,0.47,VWS V14.00,2013-05-10 02:48:00,
2013-05-09 22:53:00,56.6,54.9,29.95,WSW,243,0.0,0.0,94,0.00,,FEW100,0.47,VWS V14.00,2013-05-10 02:53:00,
2013-05-09 22:58:00,56.5,54.8,29.96,WSW,243,0.0,0.0,94,0.00,,FEW100,0.47,VWS V14.00,2013-05-10 02:58:00,
2013-05-09 23:00:00,56.5,54.8,29.96,WSW,243,0.0,0.0,94,0.00,,CLR,0.47,VWS V14.00,2013-05-10 03:00:00,
2013-05-09 23:03:00,56.4,54.7,29.96,WSW,243,0.0,1.0,94,0.00,,CLR,0.47,VWS V14.00,2013-05-10 03:03:00,
2013-05-09 23:08:00,56.2,54.5,29.96,WSW,243,0.0,1.0,94,0.00,,CLR,0.47,VWS V14.00,2013-05-10 03:08:00,
2013-05-09 23:13:00,56.1,54.4,29.96,WSW,243,0.0,1.0,94,0.00,,CLR,0.47,VWS V14.00,2013-05-10 03:13:00,
2013-05-09 23:18:00,55.9,54.2,29.96,WSW,243,0.0,1.0,94,0.00,,CLR,0.47,VWS V14.00,2013-05-10 03:18:00,
2013-05-09 23:23:00,55.8,54.1,29.96,WSW,243,0.0,1.0,94,0.00,,CLR,0.47,VWS V14.00,2013-05-10 03:23:00,
2013-05-09 23:28:00,55.5,53.8,29.96,WSW,243,0.0,1.0,94,0.00,,CLR,0.47,VWS V14.00,2013-05-10 03:28:00,
2013-05-09 23:30:00,55.5,53.8,29.96,WSW,243,0.0,1.0,94,0.00,,CLR,0.47,VWS V14.00,2013-05-10 03:30:00,
2013-05-09 23:33:00,55.6,53.9,29.96,WSW,244,0.0,1.0,94,0.00,,CLR,0.47,VWS V14.00,2013-05-10 03:33:00,
2013-05-09 23:38:00,55.8,54.4,29.96,WSW,243,0.0,1.0,95,0.00,,CLR,0.47,VWS V14.00,2013-05-10 03:38:00,
2013-05-09 23:43:00,55.8,54.1,29.96,WSW,243,0.0,1.0,94,0.00,,CLR,0.47,VWS V14.00,2013-05-10 03:43:00,
2013-05-09 23:48:00,55.6,53.9,29.96,WSW,243,0.0,1.0,94,0.00,,CLR,0.47,VWS V14.00,2013-05-10 03:48:00,
2013-05-09 23:53:00,55.6,53.9,29.96,WSW,243,0.0,1.0,94,0.00,,CLR,0.47,VWS V14.00,2013-05-10 03:53:00,
2013-05-09 23:58:00,55.5,53.8,29.96,WSW,243,0.0,1.0,94,0.00,,CLR,0.47,VWS V14.00,2013-05-10 03:58:00,